Overview Statistics Trail Chart Weather Telemetry Raw packets
 

This is the latest recevied weather packets stored in our database for station/object KC5DAQ-26. If no packets are shown the sender has not sent any weather packets the latest 10 day(s).

<< 505 506 507 508 509 510 511 >>
Time Temp. Humidity Pressure Rain* Wind** Luminosity Snow
1787851652 33.33° C 66% 1018.2 hPa 0 mm - 828 W/m² -
1787851593 33.33° C 67% 1018.3 hPa 0 mm - 756 W/m² -
1787851531 33.33° C 65% 1018.2 hPa 0 mm - 756 W/m² -
1787851471 33.33° C 65% 1018.1 hPa 0 mm - 724 W/m² -
1787851412 33.33° C 66% 1018.3 hPa 0 mm - 682 W/m² -
1787851351 33.33° C 67% 1018.3 hPa 0 mm - 628 W/m² -
1787851293 32.78° C 66% 1018.3 hPa 0 mm - 601 W/m² -
1787851234 32.78° C 69% 1018.2 hPa 0 mm - 501 W/m² -
1787851173 32.78° C 67% 1018.3 hPa 0 mm - 448 W/m² -
1787851109 32.78° C 66% 1018.4 hPa 0 mm - 404 W/m² -
1787851049 32.78° C 67% 1018.3 hPa 0 mm - 355 W/m² -
1787850986 32.78° C 68% 1018.4 hPa 0 mm - 301 W/m² -
1787850925 32.78° C 67% 1018.3 hPa 0 mm - 213 W/m² -
1787850865 32.22° C 67% 1018.3 hPa 0 mm - 179 W/m² -
1787850803 32.78° C 68% 1018.3 hPa 0 mm - 153 W/m² -
1787850742 32.22° C 67% 1018.3 hPa 0 mm - 137 W/m² -
1787850685 32.22° C 68% 1018.3 hPa 0 mm - 130 W/m² -
1787850623 32.22° C 68% 1018.2 hPa 0 mm - 125 W/m² -
1787850563 32.22° C 69% 1018.2 hPa 0 mm - 123 W/m² -
1787850503 32.22° C 68% 1018.3 hPa 0 mm - 123 W/m² -
1787850444 32.22° C 67% 1018.3 hPa 0 mm - 121 W/m² -
1787850383 32.22° C 67% 1018.4 hPa 0 mm - 121 W/m² -
1787850323 32.22° C 66% 1018.3 hPa 0 mm - 121 W/m² -
1787850264 32.22° C 66% 1018.4 hPa 0 mm - 120 W/m² -
1787850203 32.22° C 65% 1018.4 hPa 0 mm - 121 W/m² -

* Rain latest hour (hover to see other rain measurements)
** Current wind speed in m/s (hover to see current wind gust speed)